Find Starlink 30755

NORAD ID: 58186 Int'l Des: 2023-167 Owner: SPXS Country: US Constellation: starlink operational
LEOCIRCULAR

当前视图

正在加载3D地球...

About Starlink 30755

Starlink 30755 (NORAD 58186) is a starlink constellation satellite (v2 mini) launched Oct 30, 2023 by SPXS of US. It operates in LEO, CIRCULAR orbit with a mass of 730.00 kg.

关于 Starlink 30755

正在加载描述...

即将过境

Passes for default location (London). Set your location on the main map for personalized predictions.

高度历史

Loading altitude history...

两行轨道根数

1 58186U 23167M 26169.61756244 .00000239 00000-0 18208-4 0 9993
2 58186 42.9985 293.1597 0001448 268.6048 91.4638 15.27575609146429
Epoch: Jun 18, 2026 • Age: 18 hours

当前状态

高度 494.8 km
速度 7.62 km/s
星下点 -41.61°S, 134.54°E
发射日期 Oct 30, 2023
运行时间 2.6 years
类型 internet

技术详情

分类 Payload
质量 730.00 kg
干质量 700.00 kg
总质量 730.00 kg
长度 0.30 m
直径 4.10 m
跨度 29.00 m
形状 Box + pan
制造商 SPXS
平台类型 Starlink V2M
阶段状态 In Orbit
所有者/国家 SPXS/US

Most Searched